Voltar ao catálogo

DIANJIAN-1

AtivoCiênciaSSO
NORAD 69098·PAYLOAD·🇨🇳 China
Este nome de satélite ainda não foi confirmado por fontes oficiais.

Lançado May 15, 2026 de Jiuquan Satellite Launch Center

Loading…

Próximas Passagens (próximas 24 horas)

TLE

AtualizadoSource: Space-Track

Época: Sep 14, 2026, 13:29 UTC

1 69098U 26106B   26257.56193611  .00003363  00000-0  20924-3 0  9996
2 69098  97.5028 337.7742 0013873 209.5162 150.5286 15.10215037 18466

Acompanhe DIANJIAN-1 em tempo real com AllMySat

Download on the App Store